TGM annuale;;;;;;;;;;;;;;;TGM annuale;;;;;;;;;;;;;;;TGM annuale;;;;;;;;;;;;;
Tratta nr.61 SR439, Km 100.690, Montecatini Val di Cecina(PI) (flussi ascendente/discendente);;;;;;;;;;;;;;;Tratta nr.61 SR439, Km 100.690, Montecatini Val di Cecina(PI) (flusso ascendente);;;;;;;;;;;;;;;Tratta nr.61 SR439, Km 100.690, Montecatini Val di Cecina(PI) (flusso discendente);;;;;;;;;;;;;
Anno;01 Motocicli;02 Auto e monovolume;03 Auto e monovolume con rimorchio;04 Furgoncini e camioncini;05 Camion;06 Autotreni;07 Autoarticolati;08 Autobus;09 Veicoli non classificati;Totale;Feriali;Festivi;Prefestivi;;Anno;01 Motocicli;02 Auto e monovolume;03 Auto e monovolume con rimorchio;04 Furgoncini e camioncini;05 Camion;06 Autotreni;07 Autoarticolati;08 Autobus;09 Veicoli non classificati;Totale;Feriali;Festivi;Prefestivi;;Anno;01 Motocicli;02 Auto e monovolume;03 Auto e monovolume con rimorchio;04 Furgoncini e camioncini;05 Camion;06 Autotreni;07 Autoarticolati;08 Autobus;09 Veicoli non classificati;Totale;Feriali;Festivi;Prefestivi
2015;336;1768;3;53;99;6;21;2;0;2289;2242;2570;2175;;2015;48;1044;2;29;59;3;13;2;0;1200;1196;1174;1253;;2015;288;725;1;24;41;2;8;1;0;1089;1046;1396;922
;;;;;;;;;;;;;;;;;;;;;;;;;;;;;;;;;;;;;;;;;;;
Tabella flussi 2015;;;;;;;;;;;;;;;Tabella flussi 2015;;;;;;;;;;;;;;;Tabella flussi 2015;;;;;;;;;;;;;
Tratta nr.61 SR439, Km 100.690, Montecatini Val di Cecina(PI) (flussi ascendente/discendente);;;;;;;;;;;;;;;Tratta nr.61 SR439, Km 100.690, Montecatini Val di Cecina(PI) (flusso ascendente);;;;;;;;;;;;;;;Tratta nr.61 SR439, Km 100.690, Montecatini Val di Cecina(PI) (flusso discendente);;;;;;;;;;;;;
;Traffico Totale;;;;;;;;;;Traffico Med.Orario 06:00 - 20:00;Traffico Ora di punta;;;;Traffico Totale;;;;;;;;;;Traffico Med.Orario 06:00 - 20:00;Traffico Ora di punta;;;;Traffico Totale;;;;;;;;;;Traffico Med.Orario 06:00 - 20:00;Traffico Ora di punta;
Giorno;01 Motocicli;02 Auto e monovolume;03 Auto e monovolume con rimorchio;04 Furgoncini e camioncini;05 Camion;06 Autotreni;07 Autoarticolati;08 Autobus;09 Veicoli non classificati;Totale;Totale;Ora di punta;Flusso totale ora di punta;;Giorno;01 Motocicli;02 Auto e monovolume;03 Auto e monovolume con rimorchio;04 Furgoncini e camioncini;05 Camion;06 Autotreni;07 Autoarticolati;08 Autobus;09 Veicoli non classificati;Totale;Totale;Ora di punta;Flusso totale ora di punta;;Giorno;01 Motocicli;02 Auto e monovolume;03 Auto e monovolume con rimorchio;04 Furgoncini e camioncini;05 Camion;06 Autotreni;07 Autoarticolati;08 Autobus;09 Veicoli non classificati;Totale;Totale;Ora di punta;Flusso totale ora di punta
01/01/2015;;;;;;;;;;;;;;;01/01/2015;;;;;;;;;;;;;;;01/01/2015;;;;;;;;;;;;;
02/01/2015;;;;;;;;;;;;;;;02/01/2015;;;;;;;;;;;;;;;02/01/2015;;;;;;;;;;;;;
03/01/2015;;;;;;;;;;;;;;;03/01/2015;;;;;;;;;;;;;;;03/01/2015;;;;;;;;;;;;;
04/01/2015;;;;;;;;;;;;;;;04/01/2015;;;;;;;;;;;;;;;04/01/2015;;;;;;;;;;;;;
05/01/2015;;;;;;;;;;;;;;;05/01/2015;;;;;;;;;;;;;;;05/01/2015;;;;;;;;;;;;;
06/01/2015;;;;;;;;;;;;;;;06/01/2015;;;;;;;;;;;;;;;06/01/2015;;;;;;;;;;;;;
07/01/2015;;;;;;;;;;;;;;;07/01/2015;;;;;;;;;;;;;;;07/01/2015;;;;;;;;;;;;;
08/01/2015;;;;;;;;;;;;;;;08/01/2015;;;;;;;;;;;;;;;08/01/2015;;;;;;;;;;;;;
09/01/2015;;;;;;;;;;;;;;;09/01/2015;;;;;;;;;;;;;;;09/01/2015;;;;;;;;;;;;;
10/01/2015;;;;;;;;;;;;;;;10/01/2015;;;;;;;;;;;;;;;10/01/2015;;;;;;;;;;;;;
11/01/2015;;;;;;;;;;;;;;;11/01/2015;;;;;;;;;;;;;;;11/01/2015;;;;;;;;;;;;;
12/01/2015;;;;;;;;;;;;;;;12/01/2015;;;;;;;;;;;;;;;12/01/2015;;;;;;;;;;;;;
13/01/2015;;;;;;;;;;;;;;;13/01/2015;;;;;;;;;;;;;;;13/01/2015;;;;;;;;;;;;;
14/01/2015;;;;;;;;;;;;;;;14/01/2015;;;;;;;;;;;;;;;14/01/2015;;;;;;;;;;;;;
15/01/2015;;;;;;;;;;;;;;;15/01/2015;;;;;;;;;;;;;;;15/01/2015;;;;;;;;;;;;;
16/01/2015;;;;;;;;;;;;;;;16/01/2015;;;;;;;;;;;;;;;16/01/2015;;;;;;;;;;;;;
17/01/2015;;;;;;;;;;;;;;;17/01/2015;;;;;;;;;;;;;;;17/01/2015;;;;;;;;;;;;;
18/01/2015;;;;;;;;;;;;;;;18/01/2015;;;;;;;;;;;;;;;18/01/2015;;;;;;;;;;;;;
19/01/2015;;;;;;;;;;;;;;;19/01/2015;;;;;;;;;;;;;;;19/01/2015;;;;;;;;;;;;;
20/01/2015;;;;;;;;;;;;;;;20/01/2015;;;;;;;;;;;;;;;20/01/2015;;;;;;;;;;;;;
21/01/2015;;;;;;;;;;;;;;;21/01/2015;;;;;;;;;;;;;;;21/01/2015;;;;;;;;;;;;;
22/01/2015;;;;;;;;;;;;;;;22/01/2015;;;;;;;;;;;;;;;22/01/2015;;;;;;;;;;;;;
23/01/2015;;;;;;;;;;;;;;;23/01/2015;;;;;;;;;;;;;;;23/01/2015;;;;;;;;;;;;;
24/01/2015;377;1795;3;17;57;0;0;3;0;2252;145;13;282;;24/01/2015;78;1741;3;17;51;0;0;3;0;1893;122;13;251;;24/01/2015;299;54;0;0;6;0;0;0;0;359;22;16;49
25/01/2015;351;1473;4;3;19;0;0;4;0;1854;113;17;211;;25/01/2015;65;1412;4;3;11;0;0;4;0;1499;93;17;164;;25/01/2015;286;61;0;0;8;0;0;0;0;355;21;17;47
26/01/2015;318;1432;1;11;97;5;21;3;0;1888;122;17;173;;26/01/2015;60;1359;1;11;93;5;21;3;0;1553;101;8;141;;26/01/2015;258;73;0;0;4;0;0;0;0;335;21;17;43
27/01/2015;297;1367;0;28;126;5;31;3;0;1857;121;17;173;;27/01/2015;56;1292;0;26;113;5;31;3;0;1526;100;17;141;;27/01/2015;241;75;0;2;13;0;0;0;0;331;21;17;32
28/01/2015;345;1563;1;31;120;8;19;2;0;2089;135;17;183;;28/01/2015;46;1500;1;30;115;8;19;2;0;1721;113;7;157;;28/01/2015;299;63;0;1;5;0;0;0;0;368;23;17;36
29/01/2015;304;1392;5;37;103;3;25;5;0;1874;122;17;149;;29/01/2015;45;1336;5;36;99;3;25;5;0;1554;102;8;128;;29/01/2015;259;56;0;1;4;0;0;0;0;320;21;17;33
30/01/2015;301;1368;1;20;85;1;22;1;0;1799;115;17;154;;30/01/2015;41;1318;1;20;80;1;22;1;0;1484;96;17;127;;30/01/2015;260;50;0;0;5;0;0;0;0;315;20;14;30
31/01/2015;258;1170;2;9;34;1;1;0;0;1475;91;16;129;;31/01/2015;37;1141;2;9;32;1;1;0;0;1223;76;16;102;;31/01/2015;221;29;0;0;2;0;0;0;0;252;15;16;27
01/02/2015;258;1051;2;3;10;0;0;0;0;1324;77;17;131;;01/02/2015;31;1021;2;3;9;0;0;0;0;1066;62;17;106;;01/02/2015;227;30;0;0;1;0;0;0;0;258;15;16;31
02/02/2015;304;1285;0;22;126;4;15;4;0;1760;115;18;155;;02/02/2015;48;1218;0;21;119;4;15;4;0;1429;94;7;125;;02/02/2015;256;67;0;1;7;0;0;0;0;331;21;18;35
03/02/2015;305;1248;1;18;147;4;26;3;0;1752;114;14;145;;03/02/2015;46;1183;1;16;132;3;26;3;0;1410;92;14;116;;03/02/2015;259;65;0;2;15;1;0;0;0;342;21;16;34
04/02/2015;321;1306;1;21;125;6;30;2;0;1812;116;8;152;;04/02/2015;61;1232;1;19;114;6;30;2;0;1465;94;8;129;;04/02/2015;260;74;0;2;11;0;0;0;0;347;22;14;34
05/02/2015;307;1310;3;28;97;2;21;1;0;1769;114;16;152;;05/02/2015;51;1245;3;28;83;2;21;1;0;1434;93;7;119;;05/02/2015;256;65;0;0;14;0;0;0;0;335;21;16;33
06/02/2015;283;1060;1;18;66;2;10;0;0;1440;92;16;130;;06/02/2015;57;1014;1;18;59;2;9;0;0;1160;75;16;106;;06/02/2015;226;46;0;0;7;0;1;0;0;280;17;16;24
07/02/2015;311;1111;4;9;42;1;1;2;0;1481;91;15;117;;07/02/2015;54;1066;4;8;36;1;1;2;0;1172;73;9;95;;07/02/2015;257;45;0;1;6;0;0;0;0;309;18;15;25
08/02/2015;253;1113;0;1;6;1;0;0;0;1374;82;17;152;;08/02/2015;41;1074;0;1;6;1;0;0;0;1123;67;17;120;;08/02/2015;212;39;0;0;0;0;0;0;0;251;14;17;32
09/02/2015;282;1374;2;21;107;7;14;2;0;1809;117;8;154;;09/02/2015;45;1311;2;18;102;7;13;2;0;1500;99;8;136;;09/02/2015;237;63;0;3;5;0;1;0;0;309;19;13;25
10/02/2015;268;1373;6;20;127;4;26;0;0;1824;118;18;151;;10/02/2015;42;1308;6;19;114;4;26;0;0;1519;99;8;125;;10/02/2015;226;65;0;1;13;0;0;0;0;305;18;14;30
11/02/2015;291;1434;1;23;156;5;24;1;0;1935;126;17;162;;11/02/2015;46;1375;1;22;147;5;24;1;0;1621;106;8;137;;11/02/2015;245;59;0;1;9;0;0;0;0;314;19;14;27
12/02/2015;305;1421;4;35;136;9;18;1;0;1929;124;7;172;;12/02/2015;49;1358;4;33;127;9;18;1;0;1599;104;7;149;;12/02/2015;256;63;0;2;9;0;0;0;0;330;20;13;40
13/02/2015;311;1481;4;31;142;9;23;2;0;2003;127;17;177;;13/02/2015;48;1407;4;31;133;9;23;2;0;1657;106;17;142;;13/02/2015;263;74;0;0;9;0;0;0;0;346;21;17;35
14/02/2015;265;1234;2;5;24;2;2;2;0;1536;94;16;123;;14/02/2015;47;1201;2;5;19;2;1;2;0;1279;78;16;107;;14/02/2015;218;33;0;0;5;0;1;0;0;257;15;17;21
15/02/2015;305;1119;0;2;10;0;0;0;0;1436;84;17;127;;15/02/2015;47;1079;0;2;5;0;0;0;0;1133;67;12;103;;15/02/2015;258;40;0;0;5;0;0;0;0;303;17;17;31
16/02/2015;330;1312;3;18;110;2;22;0;0;1797;116;8;164;;16/02/2015;59;1244;3;17;99;2;22;0;0;1446;93;8;134;;16/02/2015;271;68;0;1;11;0;0;0;0;351;22;14;32
17/02/2015;331;1482;1;22;119;7;33;1;0;1996;131;17;196;;17/02/2015;39;1412;0;21;110;7;33;1;0;1623;107;17;161;;17/02/2015;292;70;1;1;9;0;0;0;0;373;23;18;36
18/02/2015;323;1423;2;24;113;3;26;1;0;1915;124;8;169;;18/02/2015;52;1360;2;23;104;3;26;1;0;1571;103;7;139;;18/02/2015;271;63;0;1;9;0;0;0;0;344;21;17;33
19/02/2015;311;1484;3;33;103;6;22;7;0;1969;127;18;168;;19/02/2015;51;1417;3;33;90;6;22;7;0;1629;106;7;140;;19/02/2015;260;67;0;0;13;0;0;0;0;340;21;18;32
20/02/2015;308;1485;4;33;115;7;20;2;0;1974;125;17;171;;20/02/2015;47;1429;4;33;104;7;20;2;0;1646;105;17;143;;20/02/2015;261;56;0;0;11;0;0;0;0;328;20;14;29
21/02/2015;269;1224;3;13;38;1;3;3;0;1554;94;17;128;;21/02/2015;39;1190;3;12;35;1;2;3;0;1285;78;17;103;;21/02/2015;230;34;0;1;3;0;1;0;0;269;16;17;25
22/02/2015;326;1305;2;3;4;0;1;0;0;1641;99;18;159;;22/02/2015;52;1270;2;3;4;0;1;0;0;1332;81;18;128;;22/02/2015;274;35;0;0;0;0;0;0;0;309;18;16;32
23/02/2015;290;1275;4;22;112;8;32;3;0;1746;114;8;149;;23/02/2015;53;1217;4;21;103;8;32;3;0;1441;95;7;127;;23/02/2015;237;58;0;1;9;0;0;0;0;305;19;17;30
24/02/2015;290;1296;1;21;94;6;25;1;0;1734;114;8;154;;24/02/2015;49;1237;1;21;83;6;25;1;0;1423;94;8;135;;24/02/2015;241;59;0;0;11;0;0;0;0;311;19;18;33
25/02/2015;337;1421;0;12;84;7;25;6;0;1892;123;17;167;;25/02/2015;67;1338;0;11;75;7;25;6;0;1529;101;17;135;;25/02/2015;270;83;0;1;9;0;0;0;0;363;23;8;38
26/02/2015;323;1413;0;33;123;8;23;1;0;1924;124;17;162;;26/02/2015;54;1319;0;33;106;8;22;1;0;1543;100;7;132;;26/02/2015;269;94;0;0;17;0;1;0;0;381;24;14;37
27/02/2015;325;1426;3;31;121;2;22;1;0;1931;123;17;181;;27/02/2015;42;1373;3;31;107;2;22;1;0;1581;101;17;146;;27/02/2015;283;53;0;0;14;0;0;0;0;350;22;17;35
28/02/2015;276;1441;4;11;39;0;3;2;0;1776;109;17;164;;28/02/2015;43;1406;4;10;33;0;3;2;0;1501;92;17;135;;28/02/2015;233;35;0;1;6;0;0;0;0;275;16;17;29
01/03/2015;308;1545;2;10;10;0;1;0;0;1876;115;17;218;;01/03/2015;59;1493;2;10;9;0;1;0;0;1574;98;17;170;;01/03/2015;249;52;0;0;1;0;0;0;0;302;18;17;48
02/03/2015;311;1374;2;16;113;3;33;0;0;1852;119;17;149;;02/03/2015;52;1316;2;15;109;3;33;0;0;1530;99;7;133;;02/03/2015;259;58;0;1;4;0;0;0;0;322;19;18;31
03/03/2015;298;1400;0;27;131;3;23;3;0;1885;123;17;173;;03/03/2015;44;1323;0;25;123;3;23;3;0;1544;101;17;142;;03/03/2015;254;77;0;2;8;0;0;0;0;341;21;17;31
04/03/2015;312;1484;3;27;141;5;19;3;0;1994;130;14;175;;04/03/2015;58;1414;3;24;136;5;19;3;0;1662;110;14;149;;04/03/2015;254;70;0;3;5;0;0;0;0;332;20;17;29
05/03/2015;386;1372;0;33;132;3;18;1;0;1945;127;17;168;;05/03/2015;72;1275;0;31;118;3;17;1;0;1517;99;17;138;;05/03/2015;314;97;0;2;14;0;1;0;0;428;27;8;37
06/03/2015;401;1487;0;22;147;7;20;3;0;2087;133;17;195;;06/03/2015;82;1404;0;22;130;7;20;3;0;1668;107;17;150;;06/03/2015;319;83;0;0;17;0;0;0;0;419;26;17;45
07/03/2015;335;1479;5;10;26;0;0;1;0;1856;114;17;200;;07/03/2015;48;1432;5;9;20;0;0;1;0;1515;94;17;160;;07/03/2015;287;47;0;1;6;0;0;0;0;341;20;17;40
08/03/2015;438;1692;2;3;23;0;1;0;0;2159;130;17;255;;08/03/2015;55;1625;2;3;17;0;1;0;0;1703;103;17;186;;08/03/2015;383;67;0;0;6;0;0;0;0;456;27;17;69
09/03/2015;356;1572;1;15;99;2;18;2;0;2065;135;8;174;;09/03/2015;62;1496;1;14;93;2;18;2;0;1688;110;7;154;;09/03/2015;294;76;0;1;6;0;0;0;0;377;25;8;36
10/03/2015;305;1527;2;21;174;6;25;1;0;2061;134;17;173;;10/03/2015;50;1453;2;21;165;6;25;1;0;1723;113;17;148;;10/03/2015;255;74;0;0;9;0;0;0;0;338;21;16;40
11/03/2015;311;1521;1;23;141;3;22;6;0;2028;131;8;175;;11/03/2015;50;1449;1;22;132;3;22;6;0;1685;110;8;147;;11/03/2015;261;72;0;1;9;0;0;0;0;343;21;14;37
12/03/2015;354;1551;1;40;126;4;16;2;0;2094;136;7;179;;12/03/2015;50;1468;1;40;112;4;16;2;0;1693;110;7;158;;12/03/2015;304;83;0;0;14;0;0;0;0;401;26;13;38
13/03/2015;339;1642;3;28;140;15;19;1;0;2187;139;17;188;;13/03/2015;54;1569;3;26;134;14;19;1;0;1820;117;17;160;;13/03/2015;285;73;0;2;6;1;0;0;0;367;23;18;30
14/03/2015;246;1449;6;10;45;0;4;2;0;1762;111;17;165;;14/03/2015;43;1406;6;10;38;0;4;2;0;1509;95;17;136;;14/03/2015;203;43;0;0;7;0;0;0;0;253;16;18;30
15/03/2015;322;1283;5;11;11;0;1;0;0;1633;98;16;145;;15/03/2015;50;1248;5;11;11;0;1;0;0;1326;80;17;119;;15/03/2015;272;35;0;0;0;0;0;0;0;307;18;16;36
16/03/2015;309;1395;5;28;90;9;32;0;0;1868;122;7;180;;16/03/2015;50;1325;5;26;86;9;32;0;0;1533;101;7;144;;16/03/2015;259;70;0;2;4;0;0;0;0;335;21;7;36
17/03/2015;291;1383;1;25;100;7;36;1;0;1844;119;8;154;;17/03/2015;53;1308;1;23;91;6;36;1;0;1519;98;8;131;;17/03/2015;238;75;0;2;9;1;0;0;0;325;20;17;29
18/03/2015;350;1501;3;24;121;6;24;2;0;2031;131;17;180;;18/03/2015;50;1435;3;23;109;6;24;2;0;1652;108;17;155;;18/03/2015;300;66;0;1;12;0;0;0;0;379;24;18;37
19/03/2015;322;1504;0;34;128;8;26;1;0;2023;131;9;163;;19/03/2015;59;1431;0;34;122;8;25;1;0;1680;109;7;142;;19/03/2015;263;73;0;0;6;0;1;0;0;343;22;13;35
20/03/2015;280;1504;4;29;103;4;25;4;0;1953;124;17;162;;20/03/2015;48;1439;4;28;93;4;25;4;0;1645;106;7;145;;20/03/2015;232;65;0;1;10;0;0;0;0;308;18;14;28
21/03/2015;279;1508;2;15;35;5;9;1;0;1854;116;17;163;;21/03/2015;40;1475;2;14;33;5;9;1;0;1579;100;17;144;;21/03/2015;239;33;0;1;2;0;0;0;0;275;16;14;23
22/03/2015;334;1470;4;13;12;0;2;0;0;1835;109;17;214;;22/03/2015;69;1412;4;12;10;0;1;0;0;1508;91;17;160;;22/03/2015;265;58;0;1;2;0;1;0;0;327;18;17;54
23/03/2015;304;1382;4;17;119;6;28;1;0;1861;121;7;167;;23/03/2015;50;1325;4;17;107;6;28;1;0;1538;101;7;147;;23/03/2015;254;57;0;0;12;0;0;0;0;323;20;8;32
24/03/2015;271;1407;2;33;119;8;37;1;0;1878;122;17;188;;24/03/2015;42;1345;2;33;109;7;36;1;0;1575;103;17;150;;24/03/2015;229;62;0;0;10;1;1;0;0;303;18;17;38
25/03/2015;331;1391;2;18;108;7;25;3;0;1885;120;17;166;;25/03/2015;62;1320;2;17;96;7;23;3;0;1530;99;17;133;;25/03/2015;269;71;0;1;12;0;2;0;0;355;21;17;33
26/03/2015;308;1446;3;41;146;2;27;4;0;1977;126;17;162;;26/03/2015;48;1385;3;39;132;2;27;4;0;1640;106;17;139;;26/03/2015;260;61;0;2;14;0;0;0;0;337;21;13;31
27/03/2015;348;1561;1;19;130;7;22;3;0;2091;133;18;180;;27/03/2015;57;1497;1;18;120;7;22;3;0;1725;110;17;146;;27/03/2015;291;64;0;1;10;0;0;0;0;366;23;18;40
28/03/2015;291;1590;7;8;35;3;0;2;0;1936;118;18;165;;28/03/2015;52;1547;7;8;31;3;0;2;0;1650;101;18;142;;28/03/2015;239;43;0;0;4;0;0;0;0;286;17;14;25
29/03/2015;363;1960;4;6;10;0;1;0;0;2344;143;18;283;;29/03/2015;40;1909;4;6;10;0;1;0;0;1970;121;18;235;;29/03/2015;323;51;0;0;0;0;0;0;0;374;22;17;58
30/03/2015;320;1405;3;28;123;5;14;2;0;1900;120;7;170;;30/03/2015;57;1345;3;27;113;5;14;2;0;1566;100;7;143;;30/03/2015;263;60;0;1;10;0;0;0;0;334;20;14;31
31/03/2015;300;1656;2;23;135;5;21;2;0;2144;137;17;193;;31/03/2015;35;1591;2;22;125;5;21;2;0;1803;117;17;159;;31/03/2015;265;65;0;1;10;0;0;0;0;341;21;17;34
01/04/2015;307;1558;0;22;143;3;28;2;0;2063;130;17;171;;01/04/2015;50;1501;0;21;130;3;28;2;0;1735;110;7;140;;01/04/2015;257;57;0;1;13;0;0;0;0;328;20;17;33
02/04/2015;325;1748;2;22;119;8;28;3;0;2255;142;17;204;;02/04/2015;43;1675;2;22;111;8;28;3;0;1892;120;17;166;;02/04/2015;282;73;0;0;8;0;0;0;0;363;22;17;38
03/04/2015;304;1734;1;26;98;2;16;1;0;2182;138;18;191;;03/04/2015;47;1668;1;26;91;2;15;1;0;1851;118;18;162;;03/04/2015;257;66;0;0;7;0;1;0;0;331;20;19;31
04/04/2015;274;1336;2;11;40;0;1;1;0;1665;105;10;132;;04/04/2015;28;1314;2;11;32;0;1;1;0;1389;89;10;115;;04/04/2015;246;22;0;0;8;0;0;0;0;276;17;16;23
05/04/2015;302;1411;0;4;12;1;0;0;0;1730;101;12;178;;05/04/2015;41;1375;0;4;12;1;0;0;0;1433;85;11;162;;05/04/2015;261;36;0;0;0;0;0;0;0;297;16;19;36
06/04/2015;837;3703;0;20;34;0;1;0;0;4595;273;18;685;;06/04/2015;100;3563;0;19;31;0;1;0;0;3714;225;18;523;;06/04/2015;737;140;0;1;3;0;0;0;0;881;48;19;184
07/04/2015;358;1551;3;24;132;7;20;2;0;2097;135;17;197;;07/04/2015;58;1477;3;23;124;7;20;2;0;1714;111;17;154;;07/04/2015;300;74;0;1;8;0;0;0;0;383;23;17;43
08/04/2015;292;1480;3;26;120;8;21;2;0;1952;124;17;150;;08/04/2015;48;1412;2;25;112;8;21;2;0;1630;105;16;131;;08/04/2015;244;68;1;1;8;0;0;0;0;322;19;17;32
09/04/2015;326;1636;4;38;135;4;34;2;0;2179;140;9;193;;09/04/2015;45;1561;4;37;125;4;34;2;0;1812;118;9;160;;09/04/2015;281;75;0;1;10;0;0;0;0;367;22;18;35
10/04/2015;296;1599;5;29;142;6;24;2;0;2103;134;17;165;;10/04/2015;25;1548;5;27;130;6;24;2;0;1767;113;7;140;;10/04/2015;271;51;0;2;12;0;0;0;0;336;21;17;26
11/04/2015;299;1684;6;15;47;0;3;3;0;2057;127;18;180;;11/04/2015;43;1641;6;15;42;0;3;3;0;1753;109;18;161;;11/04/2015;256;43;0;0;5;0;0;0;0;304;18;16;28
12/04/2015;418;2454;7;17;16;0;1;0;0;2913;182;18;332;;12/04/2015;58;2383;7;17;16;0;1;0;0;2482;157;18;271;;12/04/2015;360;71;0;0;0;0;0;0;0;431;25;18;61
13/04/2015;289;1492;0;27;135;4;27;2;0;1976;127;8;175;;13/04/2015;42;1447;0;26;122;4;27;2;0;1670;108;8;147;;13/04/2015;247;45;0;1;13;0;0;0;0;306;19;18;31
14/04/2015;308;1508;2;25;121;4;24;2;0;1994;128;18;174;;14/04/2015;60;1444;2;25;113;4;23;2;0;1673;108;8;144;;14/04/2015;248;64;0;0;8;0;1;0;0;321;20;18;34
15/04/2015;269;1561;3;23;119;6;15;5;0;2001;128;14;159;;15/04/2015;44;1512;3;23;104;6;15;4;0;1711;110;7;143;;15/04/2015;225;49;0;0;15;0;0;1;0;290;18;17;31
16/04/2015;301;1606;1;41;134;8;35;1;0;2127;136;7;194;;16/04/2015;40;1530;1;41;121;7;34;1;0;1775;115;7;178;;16/04/2015;261;76;0;0;13;1;1;0;0;352;21;17;35
17/04/2015;280;1525;2;30;146;7;26;3;0;2019;123;8;171;;17/04/2015;53;1451;2;30;135;7;26;3;0;1707;106;8;145;;17/04/2015;227;74;0;0;11;0;0;0;0;312;18;15;28
18/04/2015;249;1585;6;31;42;1;3;1;0;1918;116;15;163;;18/04/2015;33;1535;6;30;34;1;3;1;0;1643;100;15;143;;18/04/2015;216;50;0;1;8;0;0;0;0;275;16;19;25
19/04/2015;385;1767;10;17;19;0;0;1;0;2199;134;18;278;;19/04/2015;56;1698;9;16;16;0;0;1;0;1796;110;18;218;;19/04/2015;329;69;1;1;3;0;0;0;0;403;24;18;60
20/04/2015;305;1522;7;25;134;6;25;2;0;2026;128;7;177;;20/04/2015;55;1454;7;24;127;6;25;2;0;1700;109;7;160;;20/04/2015;250;68;0;1;7;0;0;0;0;326;20;17;31
21/04/2015;313;1580;5;39;135;2;30;3;0;2107;134;18;177;;21/04/2015;59;1498;5;37;123;2;30;3;0;1757;113;7;148;;21/04/2015;254;82;0;2;12;0;0;0;0;350;21;18;38
22/04/2015;315;1699;3;30;139;9;26;3;0;2224;142;17;202;;22/04/2015;48;1270;2;27;108;8;25;3;0;1491;97;7;163;;22/04/2015;267;429;1;3;31;1;1;0;0;733;45;17;131
23/04/2015;357;1692;2;38;151;8;33;1;0;2282;146;8;187;;23/04/2015;43;848;1;24;70;3;19;1;0;1009;63;7;100;;23/04/2015;314;844;1;14;81;5;14;0;0;1273;83;14;111
24/04/2015;329;1803;6;28;148;8;30;3;0;2355;143;17;199;;24/04/2015;29;941;3;12;72;7;19;2;0;1085;65;17;98;;24/04/2015;300;862;3;16;76;1;11;1;0;1270;78;16;104
25/04/2015;326;2150;2;8;14;0;0;0;0;2500;151;18;278;;25/04/2015;38;1151;1;6;6;0;0;0;0;1202;75;11;173;;25/04/2015;288;999;1;2;8;0;0;0;0;1298;76;18;221
26/04/2015;453;1855;5;18;14;0;0;1;0;2346;140;18;298;;26/04/2015;36;737;3;9;2;0;0;1;0;788;47;9;75;;26/04/2015;417;1118;2;9;12;0;0;0;0;1558;93;18;251
27/04/2015;291;1459;5;36;146;8;23;2;0;1970;125;17;166;;27/04/2015;35;673;3;16;82;3;12;1;0;825;52;7;72;;27/04/2015;256;786;2;20;64;5;11;1;0;1145;73;17;95
28/04/2015;270;1639;4;28;141;10;37;1;0;2130;137;17;198;;28/04/2015;40;810;3;14;71;4;18;0;0;960;60;7;91;;28/04/2015;230;829;1;14;70;6;19;1;0;1170;77;17;118
29/04/2015;330;1715;1;26;133;6;29;4;0;2244;143;8;184;;29/04/2015;48;835;0;18;63;4;17;2;0;987;62;19;91;;29/04/2015;282;880;1;8;70;2;12;2;0;1257;81;17;119
30/04/2015;358;1970;2;52;135;4;28;2;0;2551;160;12;206;;30/04/2015;69;1032;1;32;68;2;18;2;0;1224;75;9;100;;30/04/2015;289;938;1;20;67;2;10;0;0;1327;85;12;130
01/05/2015;324;2520;2;20;22;1;3;2;0;2894;181;11;315;;01/05/2015;41;1364;1;13;13;1;3;0;0;1436;94;11;234;;01/05/2015;283;1156;1;7;9;0;0;2;0;1458;87;18;236
02/05/2015;371;1801;7;14;36;4;7;1;0;2241;135;18;187;;02/05/2015;46;902;4;6;16;2;3;0;0;979;61;11;89;;02/05/2015;325;899;3;8;20;2;4;1;0;1262;74;18;122
03/05/2015;529;2349;3;18;29;0;0;0;0;2928;178;18;453;;03/05/2015;29;853;2;5;6;0;0;0;0;895;54;10;95;;03/05/2015;500;1496;1;13;23;0;0;0;0;2033;125;18;392
04/05/2015;350;1570;3;23;147;7;22;4;0;2126;136;7;178;;04/05/2015;55;746;2;10;75;4;9;3;0;904;58;7;85;;04/05/2015;295;824;1;13;72;3;13;1;0;1222;78;17;99
05/05/2015;333;1873;3;30;138;6;37;3;0;2423;158;14;204;;05/05/2015;56;917;2;16;66;3;24;2;0;1086;70;14;152;;05/05/2015;277;956;1;14;72;3;13;1;0;1337;88;6;130
06/05/2015;332;1670;1;22;125;7;23;2;0;2182;139;17;207;;06/05/2015;49;808;1;13;65;3;12;1;0;952;59;7;81;;06/05/2015;283;862;0;9;60;4;11;1;0;1230;79;17;146
07/05/2015;314;1710;2;34;146;6;34;2;0;2248;140;17;181;;07/05/2015;55;853;0;17;72;3;23;2;0;1025;64;7;93;;07/05/2015;259;857;2;17;74;3;11;0;0;1223;77;17;123
08/05/2015;319;1750;0;44;134;5;34;1;0;2287;142;17;181;;08/05/2015;51;918;0;25;65;2;19;1;0;1081;65;19;101;;08/05/2015;268;832;0;19;69;3;15;0;0;1206;77;15;110
09/05/2015;266;1602;4;13;44;0;1;2;0;1932;117;19;196;;09/05/2015;29;864;3;8;24;0;0;1;0;929;57;16;87;;09/05/2015;237;738;1;5;20;0;1;1;0;1003;60;19;130
10/05/2015;457;2233;7;13;17;2;0;0;0;2729;157;18;332;;10/05/2015;34;980;4;4;7;0;0;0;0;1029;62;11;118;;10/05/2015;423;1253;3;9;10;2;0;0;0;1700;94;18;283
11/05/2015;316;1633;2;34;148;7;42;2;0;2184;140;8;178;;11/05/2015;43;789;1;16;77;5;19;1;0;951;61;9;87;;11/05/2015;273;844;1;18;71;2;23;1;0;1233;79;18;109
12/05/2015;314;1734;3;31;123;11;31;1;0;2248;143;17;224;;12/05/2015;48;879;1;14;58;6;19;0;0;1025;65;7;94;;12/05/2015;266;855;2;17;65;5;12;1;0;1223;78;14;138
13/05/2015;308;1829;4;34;166;5;31;2;0;2379;152;18;190;;13/05/2015;35;910;1;17;75;3;19;1;0;1061;66;7;89;;13/05/2015;273;919;3;17;91;2;12;1;0;1318;85;17;114
14/05/2015;324;1840;2;39;122;7;19;3;0;2356;147;15;186;;14/05/2015;82;1008;1;26;62;4;10;2;0;1195;76;14;143;;14/05/2015;242;832;1;13;60;3;9;1;0;1161;71;15;137
15/05/2015;323;1693;1;30;138;7;32;5;0;2229;137;18;170;;15/05/2015;63;866;0;14;66;4;13;2;0;1028;61;16;78;;15/05/2015;260;827;1;16;72;3;19;3;0;1201;76;14;98
16/05/2015;286;1624;0;26;44;1;0;2;0;1983;119;17;150;;16/05/2015;41;905;0;16;23;1;0;2;0;988;59;18;79;;16/05/2015;245;719;0;10;21;0;0;0;0;995;60;15;88
17/05/2015;519;2860;7;25;14;0;2;2;0;3429;203;11;410;;17/05/2015;43;1293;4;14;3;0;0;0;0;1357;86;11;235;;17/05/2015;476;1567;3;11;11;0;2;2;0;2072;118;18;305
18/05/2015;316;1694;5;26;120;7;40;0;0;2208;138;17;173;;18/05/2015;39;819;4;15;57;3;20;0;0;957;60;11;88;;18/05/2015;277;875;1;11;63;4;20;0;0;1251;78;17;114
19/05/2015;297;1669;1;27;119;4;36;2;0;2155;135;18;175;;19/05/2015;47;816;1;17;56;1;16;1;0;955;58;9;88;;19/05/2015;250;853;0;10;63;3;20;1;0;1200;76;18;121
20/05/2015;334;1656;3;37;141;6;24;3;0;2204;142;17;176;;20/05/2015;55;807;1;22;67;4;12;1;0;969;61;7;90;;20/05/2015;279;849;2;15;74;2;12;2;0;1235;80;18;110
21/05/2015;314;1680;0;44;142;2;31;6;0;2219;142;7;164;;21/05/2015;51;828;0;26;70;1;11;5;0;992;63;7;90;;21/05/2015;263;852;0;18;72;1;20;1;0;1227;78;17;99
22/05/2015;286;1673;0;28;104;6;17;5;0;2119;131;17;165;;22/05/2015;50;847;0;13;52;4;7;4;0;977;60;7;89;;22/05/2015;236;826;0;15;52;2;10;1;0;1142;71;17;91
23/05/2015;255;1550;2;27;47;1;5;4;0;1891;112;17;150;;23/05/2015;32;827;1;15;22;1;2;2;0;902;53;17;79;;23/05/2015;223;723;1;12;25;0;3;2;0;989;59;15;81
24/05/2015;315;1795;1;10;11;0;0;0;0;2132;127;18;230;;24/05/2015;27;817;0;7;4;0;0;0;0;855;52;12;81;;24/05/2015;288;978;1;3;7;0;0;0;0;1277;75;18;164
25/05/2015;262;1594;4;26;129;6;23;4;0;2048;130;8;163;;25/05/2015;40;792;1;12;65;3;15;1;0;929;59;7;84;;25/05/2015;222;802;3;14;64;3;8;3;0;1119;72;17;99
26/05/2015;313;1688;3;22;129;7;28;4;0;2194;139;17;203;;26/05/2015;36;827;2;12;56;2;18;3;0;956;60;17;83;;26/05/2015;277;861;1;10;73;5;10;1;0;1238;80;17;120
27/05/2015;320;1721;1;30;143;5;29;3;0;2252;139;9;211;;27/05/2015;45;840;1;18;73;3;14;3;0;997;62;9;95;;27/05/2015;275;881;0;12;70;2;15;0;0;1255;77;9;116
28/05/2015;296;1830;3;38;170;6;22;4;0;2369;147;18;185;;28/05/2015;48;947;2;15;81;2;9;3;0;1107;67;7;106;;28/05/2015;248;883;1;23;89;4;13;1;0;1262;80;17;114
29/05/2015;283;1918;2;36;134;4;22;1;0;2400;144;18;199;;29/05/2015;48;1013;1;19;63;2;12;1;0;1159;66;19;89;;29/05/2015;235;905;1;17;71;2;10;0;0;1241;78;18;111
30/05/2015;238;1905;3;23;38;1;4;3;0;2215;133;17;169;;30/05/2015;52;1159;2;13;22;0;3;2;0;1253;75;10;124;;30/05/2015;186;746;1;10;16;1;1;1;0;962;58;18;83
31/05/2015;398;2738;2;12;17;1;0;0;0;3168;186;18;357;;31/05/2015;44;1412;1;8;10;0;0;0;0;1475;95;10;240;;31/05/2015;354;1326;1;4;7;1;0;0;0;1693;91;18;291